This is the latest recevied weather packets stored in our database for station/object OK2JCZ-6. If no packets are shown the sender has not sent any weather packets the latest 1 day(s).
| Time | Temp. | Humidity | Pressure | Rain* | Wind** | Luminosity | Snow |
|---|---|---|---|---|---|---|---|
| 1778059180 | 21.11° C | 38% | 1007.3 hPa | 0 mm | - | - | - |
| 1778058581 | 21.11° C | 40% | 1007.3 hPa | 0 mm | - | - | - |
| 1778058280 | 21.11° C | 38% | 1007.3 hPa | 0 mm | - | - | - |
| 1778057980 | 21.11° C | 39% | 1007.3 hPa | 0 mm | - | - | - |
| 1778057080 | 20° C | 38% | 1007.3 hPa | 0 mm | - | - | - |
| 1778056780 | 20° C | 40% | 1007.3 hPa | 0 mm | - | - | - |
| 1778056480 | 21.11° C | 41% | 1007.4 hPa | 0 mm | - | - | - |
| 1778055880 | 21.11° C | 38% | 1007.5 hPa | 0 mm | - | - | - |
| 1778055580 | 21.11° C | 38% | 1007.5 hPa | 0 mm | - | - | - |
| 1778054980 | 21.11° C | 40% | 1007.5 hPa | 0 mm | - | - | - |
| 1778054680 | 22.22° C | 39% | 1007.5 hPa | 0 mm | - | - | - |
| 1778054380 | 22.22° C | 39% | 1007.4 hPa | 0 mm | - | - | - |
| 1778053780 | 22.78° C | 39% | 1007.4 hPa | 0 mm | - | - | - |
| 1778053480 | 21.67° C | 38% | 1007.4 hPa | 0 mm | - | - | - |
| 1778052880 | 21.67° C | 40% | 1007.4 hPa | 0 mm | - | - | - |
| 1778052580 | 21.67° C | 41% | 1007.5 hPa | 0 mm | - | - | - |
| 1778051680 | 20° C | 42% | 1007.6 hPa | 0 mm | - | - | - |
| 1778051380 | 20° C | 42% | 1007.5 hPa | 0 mm | - | - | - |
| 1778051080 | 20.56° C | 42% | 1007.5 hPa | 0 mm | - | - | - |
| 1778050780 | 20.56° C | 42% | 1007.5 hPa | 0 mm | - | - | - |
| 1778050180 | 20.56° C | 44% | 1007.4 hPa | 0 mm | - | - | - |
| 1778049880 | 20° C | 44% | 1007.4 hPa | 0 mm | - | - | - |
| 1778049280 | 20.56° C | 43% | 1007.3 hPa | 0 mm | - | - | - |
| 1778048685 | 19.44° C | 46% | 1007.4 hPa | 0 mm | - | - | - |
| 1778048380 | 19.44° C | 48% | 1007.5 hPa | 0 mm | - | - | - |
* Rain latest hour (hover to see other rain measurements)
** Current wind speed in m/s (hover to see current wind gust speed)